Dewpoint
72 72 72 72 72 71 71 71 71 71 71 71 71 71 72 71 71 71 71 70 69 68 67 66 67 67 66 66 66 66 66 65 65 65 65 66 64 64 65 65 65 62
72 72 73 72 72 72 72 72 71 71 71 71 71 71 71 71 71 71 70 70 69 67 66 65 65 66 66 66 66 65 65 65 65 67 65 65 64 64 64 65 65 64
72 72 73 72 72 72 72 72 71 71 71 71 71 70 71 71 70 70 69 69 68 66 66 64 64 66 67 66 66 66 65 65 65 66 66 65 65 64 64 65 65 64
73 73 73 73 73 72 73 72 72 71 71 71 71 70 71 70 70 69 68 70 67 66 66 65 64 65 67 66 66 65 65 65 65 66 66 66 66 65 64 64 65 65
73 73 73 73 73 73 73 72 71 71 71 71 70 71 71 70 70 69 67 68 66 66 66 65 65 65 66 66 66 65 65 65 65 66 65 65 65 66 64 65 64 64
73 73 73 73 73 73 72 72 72 71 71 70 70 70 70 70 69 68 67 66 66 65 66 66 66 65 66 65 65 65 65 64 65 66 65 65 64 66 65 65 64 64
73 73 73 73 73 73 73 72 72 71 71 71 70 70 69 70 69 68 67 66 65 66 65 65 66 65 66 65 65 64 65 65 64 66 65 64 65 65 65 64 64 64
73 73 73 73 73 73 73 73 72 72 71 71 70 70 69 69 69 68 67 66 65 65 65 65 66 66 66 65 64 64 64 65 65 65 65 64 64 64 64 64 64 63
73 73 73 73 73 73 73 73 73 72 72 71 70 69 69 68 69 68 68 67 65 65 66 65 65 66 66 66 64 63 63 64 64 64 64 64 64 64 64 64 63 63
73 74 73 73 73 73 73 73 73 72 72 71 70 70 69 69 69 68 68 67 66 65 65 66 66 65 65 66 65 64 63 63 64 64 64 64 64 64 64 64 63 63
73 73 73 73 73 73 73 73 73 72 72 71 71 70 69 69 68 68 68 67 67 66 66 66 66 66 65 65 65 65 64 63 63 63 64 64 64 64 66 64 63 63
73 73 73 73 73 73 73 73 73 73 72 71 71 70 69 68 68 68 68 67 67 66 66 66 66 66 66 65 65 65 65 64 64 64 64 64 64 64 65 65 64 64
73 73 73 73 73 73 73 73 73 73 72 72 71 70 69 69 68 68 68 67 67 67 66 66 66 66 66 66 65 65 65 65 64 64 64 64 65 64 64 65 64 64
73 73 73 73 73 73 73 73 73 73 73 72 72 71 70 69 68 68 68 67 67 67 67 66 66 66 66 66 66 65 65 65 65 64 64 64 65 65 65 64 64 64
73 73 73 73 73 73 72 72 72 73 73 72 72 71 71 70 69 68 68 68 67 67 67 66 66 66 66 66 66 65 65 65 65 65 65 64 64 65 65 65 65 64
73 73 73 73 73 73 72 72 72 72 72 72 72 72 71 71 70 69 68 68 67 67 67 67 66 66 65 62 63 66 65 65 65 65 64 64 64 64 65 65 65 64
73 73 73 73 73 73 72 72 72 72 72 72 72 72 72 71 71 70 69 68 68 67 67 67 67 66 62 60 62 63 65 65 65 65 64 64 65 64 64 65 65 65
73 73 73 73 73 73 72 72 72 72 72 72 72 72 72 72 71 70 70 69 68 68 67 67 66 63 60 60 61 61 63 66 66 65 65 64 64 64 64 64 64 64
73 73 73 73 73 73 72 72 72 72 72 71 72 72 72 72 71 71 70 69 69 68 67 67 67 63 60 60 61 61 61 64 65 66 65 65 65 64 64 64 64 64
73 73 73 73 73 73 72 72 72 71 71 71 72 72 72 72 71 71 71 70 69 68 68 68 67 62 59 59 60 60 60 62 65 65 65 65 65 64 64 64 64 64
73 73 73 73 73 72 72 72 72 72 72 71 71 72 72 72 71 71 71 70 70 69 68 68 68 60 58 58 58 59 59 61 65 65 65 65 65 65 65 64 64 64
73 73 73 73 72 72 72 72 72 72 72 72 71 72 72 72 72 71 71 70 70 69 68 68 67 58 57 57 58 58 59 63 65 64 64 65 65 65 65 65 65 64
73 73 73 72 72 72 72 72 72 72 72 72 72 72 72 72 72 71 71 70 70 69 68 68 67 59 57 56 57 58 59 64 65 64 63 64 64 65 65 64 64 63
73 73 73 72 72 72 72 72 72 72 72 72 72 71 71 72 72 72 71 70 70 69 69 68 67 59 55 56 56 57 59 64 65 64 63 63 64 64 64 64 63 66
73 73 73 72 72 72 72 72 72 72 72 73 72 72 72 72 71 71 71 70 69 69 66 67 67 60 55 56 56 56 59 65 65 64 63 63 63 63 63 63 62 66
73 73 73 73 72 72 72 72 73 73 73 72 72 72 72 72 71 71 69 69 68 68 68 67 67 63 59 55 55 54 57 65 65 64 63 62 63 62 62 62 62 61